Location: Allie Creek
(37.5926°N, 89.8526°W)
Time: 15:36:47
(UTC+00:00)

Meteor 1-27 Rocket - Pass Details

Date: 18 April 2024
Orbit: 829 x 909 km, 81.3° (Epoch: 26 May)

Event Time Altitude Azimuth Distance (km) Brightness Sun altitude
Exits shadow 07:39:55 32° 71° (ENE) 1,450 5.2 -35.9°
Drops below altitude 10° 07:44:04 10° 28° (NNE) 2,509 6.9 -35.5°
Sets 07:46:39 0° 20° (NNE) 3,437 7.8 -35.2°
